AJISAI (EGS)

Last updated on Sun Oct 26 2025 00:02:18 GMT+0000 (Coordinated Universal Time)

1 16908U 86061A 25298.47958846 -.00000093 00000+0 32083-4 0 9994 2 16908 50.0069 149.1161 0011145 303.7732 130.3780 12.44514000451166
UTC large
Height (km)
Speed (km/s)
/
Latitude / Longitude
Inclination (degrees)
Orbital Period (minutes)
Azimuth
Elevation
Range (km)
Doppler Factor

Next 0 passes for location: London (51.5072 / 0.1276)

Sorry there are no passes over London.